Year,Month,Day,Hour,Minute,Value (Times are PST for temperature in C)
2016,06,26,00,00,13.80
2016,06,26,00,01,13.80
2016,06,26,00,02,13.80
2016,06,26,00,03,13.80
2016,06,26,00,04,13.80
2016,06,26,00,05,13.70
2016,06,26,00,06,13.70
2016,06,26,00,07,13.70
2016,06,26,00,08,13.70
2016,06,26,00,09,13.70
2016,06,26,00,10,13.70
2016,06,26,00,11,13.70
2016,06,26,00,12,13.70
2016,06,26,00,13,13.70
2016,06,26,00,14,13.60
2016,06,26,00,15,13.60
2016,06,26,00,16,13.60
2016,06,26,00,17,13.60
2016,06,26,00,18,13.60
2016,06,26,00,19,13.60
2016,06,26,00,20,13.60
2016,06,26,00,21,13.60
2016,06,26,00,22,13.60
2016,06,26,00,23,13.60
2016,06,26,00,24,13.60
2016,06,26,00,25,13.60
2016,06,26,00,26,13.50
2016,06,26,00,27,13.50
2016,06,26,00,28,13.50
2016,06,26,00,29,13.50
2016,06,26,00,30,13.50
2016,06,26,00,31,13.40
2016,06,26,00,32,13.40
2016,06,26,00,33,13.40
2016,06,26,00,34,13.40
2016,06,26,00,35,13.40
2016,06,26,00,36,13.40
2016,06,26,00,37,13.40
2016,06,26,00,38,13.40
2016,06,26,00,39,13.40
2016,06,26,00,40,13.30
2016,06,26,00,41,13.30
2016,06,26,00,42,13.30
2016,06,26,00,43,13.30
2016,06,26,00,44,13.30
2016,06,26,00,45,13.30
2016,06,26,00,46,13.30
2016,06,26,00,47,13.30
2016,06,26,00,48,13.30
2016,06,26,00,49,13.20
2016,06,26,00,50,13.20
2016,06,26,00,51,13.20
2016,06,26,00,52,13.20
2016,06,26,00,53,13.20
2016,06,26,00,54,13.20
2016,06,26,00,55,13.10
2016,06,26,00,56,13.10
2016,06,26,00,57,13.10
2016,06,26,00,58,13.10
2016,06,26,00,59,13.10
2016,06,26,01,00,13.10
2016,06,26,01,01,13.00
2016,06,26,01,02,13.00
2016,06,26,01,03,13.00
2016,06,26,01,04,13.00
2016,06,26,01,05,13.00
2016,06,26,01,06,12.90
2016,06,26,01,07,12.90
2016,06,26,01,08,12.90
2016,06,26,01,09,12.90
2016,06,26,01,10,12.90
2016,06,26,01,11,12.80
2016,06,26,01,12,12.80
2016,06,26,01,13,12.80
2016,06,26,01,14,12.80
2016,06,26,01,15,12.80
2016,06,26,01,16,12.80
2016,06,26,01,17,12.80
2016,06,26,01,18,12.80
2016,06,26,01,19,12.70
2016,06,26,01,20,12.70
2016,06,26,01,21,12.70
2016,06,26,01,22,12.70
2016,06,26,01,23,12.70
2016,06,26,01,24,12.70
2016,06,26,01,25,12.60
2016,06,26,01,26,12.60
2016,06,26,01,27,12.60
2016,06,26,01,28,12.60
2016,06,26,01,29,12.60
2016,06,26,01,30,12.60
2016,06,26,01,31,12.60
2016,06,26,01,32,12.50
2016,06,26,01,33,12.50
2016,06,26,01,34,12.50
2016,06,26,01,35,12.50
2016,06,26,01,36,12.50
2016,06,26,01,37,12.40
2016,06,26,01,38,12.40
2016,06,26,01,39,12.40
2016,06,26,01,40,12.40
2016,06,26,01,41,12.40
2016,06,26,01,42,12.40
2016,06,26,01,43,12.40
2016,06,26,01,44,12.30
2016,06,26,01,45,12.30
2016,06,26,01,46,12.30
2016,06,26,01,47,12.30
2016,06,26,01,48,12.30
2016,06,26,01,49,12.30
2016,06,26,01,50,12.30
2016,06,26,01,51,12.30
2016,06,26,01,52,12.30
2016,06,26,01,53,12.30
2016,06,26,01,54,12.30
2016,06,26,01,55,12.30
2016,06,26,01,56,12.20
2016,06,26,01,57,12.20
2016,06,26,01,58,12.20
2016,06,26,01,59,12.20
2016,06,26,02,00,12.20
2016,06,26,02,01,12.20
2016,06,26,02,02,12.20
2016,06,26,02,03,12.20
2016,06,26,02,04,12.20
2016,06,26,02,05,12.20
2016,06,26,02,06,12.10
2016,06,26,02,07,12.10
2016,06,26,02,08,12.10
2016,06,26,02,09,12.10
2016,06,26,02,10,12.10
2016,06,26,02,11,12.10
2016,06,26,02,12,12.10
2016,06,26,02,13,12.10
2016,06,26,02,14,12.10
2016,06,26,02,15,12.10
2016,06,26,02,16,12.10
2016,06,26,02,17,12.10
2016,06,26,02,18,12.10
2016,06,26,02,19,12.10
2016,06,26,02,20,12.10
2016,06,26,02,21,12.10
2016,06,26,02,22,12.10
2016,06,26,02,23,12.10
2016,06,26,02,24,12.10
2016,06,26,02,25,12.10
2016,06,26,02,26,12.10
2016,06,26,02,27,12.00
2016,06,26,02,28,12.00
2016,06,26,02,29,12.00
2016,06,26,02,30,12.00
2016,06,26,02,31,12.00
2016,06,26,02,32,12.00
2016,06,26,02,33,11.90
2016,06,26,02,34,11.90
2016,06,26,02,35,11.90
2016,06,26,02,36,11.90
2016,06,26,02,37,11.90
2016,06,26,02,38,11.90
2016,06,26,02,39,11.90
2016,06,26,02,40,11.90
2016,06,26,02,41,11.90
2016,06,26,02,42,11.90
2016,06,26,02,43,11.80
2016,06,26,02,44,11.80
2016,06,26,02,45,11.80
2016,06,26,02,46,11.80
2016,06,26,02,47,11.80
2016,06,26,02,48,11.80
2016,06,26,02,49,11.80
2016,06,26,02,50,11.80
2016,06,26,02,51,11.70
2016,06,26,02,52,11.70
2016,06,26,02,53,11.70
2016,06,26,02,54,11.70
2016,06,26,02,55,11.70
2016,06,26,02,56,11.70
2016,06,26,02,57,11.70
2016,06,26,02,58,11.70
2016,06,26,02,59,11.70
2016,06,26,03,00,11.60
2016,06,26,03,01,11.60
2016,06,26,03,02,11.60
2016,06,26,03,03,11.60
2016,06,26,03,04,11.60
2016,06,26,03,05,11.60
2016,06,26,03,06,11.60
2016,06,26,03,07,11.60
2016,06,26,03,08,11.60
2016,06,26,03,09,11.60
2016,06,26,03,10,11.60
2016,06,26,03,11,11.60
2016,06,26,03,12,11.60
2016,06,26,03,13,11.50
2016,06,26,03,14,11.60
2016,06,26,03,15,11.50
2016,06,26,03,16,11.50
2016,06,26,03,17,11.50
2016,06,26,03,18,11.50
2016,06,26,03,19,11.50
2016,06,26,03,20,11.50
2016,06,26,03,21,11.50
2016,06,26,03,22,11.50
2016,06,26,03,23,11.50
2016,06,26,03,24,11.40
2016,06,26,03,25,11.40
2016,06,26,03,26,11.40
2016,06,26,03,27,11.40
2016,06,26,03,28,11.40
2016,06,26,03,29,11.40
2016,06,26,03,30,11.40
2016,06,26,03,31,11.40
2016,06,26,03,32,11.40
2016,06,26,03,33,11.40
2016,06,26,03,34,11.40
2016,06,26,03,35,11.40
2016,06,26,03,36,11.40
2016,06,26,03,37,11.40
2016,06,26,03,38,11.30
2016,06,26,03,39,11.30
2016,06,26,03,40,11.30
2016,06,26,03,41,11.30
2016,06,26,03,42,11.30
2016,06,26,03,43,11.30
2016,06,26,03,44,11.30
2016,06,26,03,45,11.30
2016,06,26,03,46,11.30
2016,06,26,03,47,11.30
2016,06,26,03,48,11.30
2016,06,26,03,49,11.30
2016,06,26,03,50,11.30
2016,06,26,03,51,11.20
2016,06,26,03,52,11.20
2016,06,26,03,53,11.20
2016,06,26,03,54,11.20
2016,06,26,03,55,11.20
2016,06,26,03,56,11.20
2016,06,26,03,57,11.20
2016,06,26,03,58,11.20
2016,06,26,03,59,11.20
2016,06,26,04,00,11.20
2016,06,26,04,01,11.10
2016,06,26,04,02,11.10
2016,06,26,04,03,11.10
2016,06,26,04,04,11.10
2016,06,26,04,05,11.10
2016,06,26,04,06,11.10
2016,06,26,04,07,11.10
2016,06,26,04,08,11.10
2016,06,26,04,09,11.10
2016,06,26,04,10,11.10
2016,06,26,04,11,11.10
2016,06,26,04,12,11.10
2016,06,26,04,13,11.00
2016,06,26,04,14,11.10
2016,06,26,04,15,11.00
2016,06,26,04,16,11.00
2016,06,26,04,17,11.00
2016,06,26,04,18,11.00
2016,06,26,04,19,11.00
2016,06,26,04,20,11.00
2016,06,26,04,21,11.00
2016,06,26,04,22,11.00
2016,06,26,04,23,10.90
2016,06,26,04,24,10.90
2016,06,26,04,25,10.90
2016,06,26,04,26,10.90
2016,06,26,04,27,10.90
2016,06,26,04,28,10.90
2016,06,26,04,29,10.90
2016,06,26,04,30,10.90
2016,06,26,04,31,10.90
2016,06,26,04,32,10.90
2016,06,26,04,33,10.90
2016,06,26,04,34,10.90
2016,06,26,04,35,10.90
2016,06,26,04,36,10.90
2016,06,26,04,37,10.90
2016,06,26,04,38,10.90
2016,06,26,04,39,10.80
2016,06,26,04,40,10.80
2016,06,26,04,41,10.80
2016,06,26,04,42,10.80
2016,06,26,04,43,10.80
2016,06,26,04,44,10.80
2016,06,26,04,45,10.80
2016,06,26,04,46,10.80
2016,06,26,04,47,10.80
2016,06,26,04,48,10.80
2016,06,26,04,49,10.80
2016,06,26,04,50,10.80
2016,06,26,04,51,10.80
2016,06,26,04,52,10.80
2016,06,26,04,53,10.80
2016,06,26,04,54,10.80
2016,06,26,04,55,10.80
2016,06,26,04,56,10.80
2016,06,26,04,57,10.80
2016,06,26,04,58,10.80
2016,06,26,04,59,10.80
2016,06,26,05,00,10.80
2016,06,26,05,01,10.80
2016,06,26,05,02,10.80
2016,06,26,05,03,10.80
2016,06,26,05,04,10.80
2016,06,26,05,05,10.80
2016,06,26,05,06,10.80
2016,06,26,05,07,10.80
2016,06,26,05,08,10.80
2016,06,26,05,09,10.70
2016,06,26,05,10,10.70
2016,06,26,05,11,10.70
2016,06,26,05,12,10.70
2016,06,26,05,13,10.70
2016,06,26,05,14,10.70
2016,06,26,05,15,10.70
2016,06,26,05,16,10.70
2016,06,26,05,17,10.70
2016,06,26,05,18,10.70
2016,06,26,05,19,10.70
2016,06,26,05,20,10.70
2016,06,26,05,21,10.70
2016,06,26,05,22,10.70
2016,06,26,05,23,10.70
2016,06,26,05,24,10.70
2016,06,26,05,25,10.60
2016,06,26,05,26,10.60
2016,06,26,05,27,10.60
2016,06,26,05,28,10.60
2016,06,26,05,29,10.60
2016,06,26,05,30,10.60
2016,06,26,05,31,10.60
2016,06,26,05,32,10.60
2016,06,26,05,33,10.60
2016,06,26,05,34,10.60
2016,06,26,05,35,10.50
2016,06,26,05,36,10.50
2016,06,26,05,37,10.50
2016,06,26,05,38,10.50
2016,06,26,05,39,10.50
2016,06,26,05,40,10.50
2016,06,26,05,41,10.50
2016,06,26,05,42,10.50
2016,06,26,05,43,10.50
2016,06,26,05,44,10.50
2016,06,26,05,45,10.50
2016,06,26,05,46,10.50
2016,06,26,05,47,10.40
2016,06,26,05,48,10.40
2016,06,26,05,49,10.40
2016,06,26,05,50,10.40
2016,06,26,05,51,10.40
2016,06,26,05,52,10.40
2016,06,26,05,53,10.50
2016,06,26,05,54,10.50
2016,06,26,05,55,10.50
2016,06,26,05,56,10.50
2016,06,26,05,57,10.50
2016,06,26,05,58,10.50
2016,06,26,05,59,10.50
2016,06,26,06,00,10.50
2016,06,26,06,01,10.50
2016,06,26,06,02,10.50
2016,06,26,06,03,10.50
2016,06,26,06,04,10.60
2016,06,26,06,05,10.60
2016,06,26,06,06,10.60
2016,06,26,06,07,10.60
2016,06,26,06,08,10.60
2016,06,26,06,09,10.60
2016,06,26,06,10,10.60
2016,06,26,06,11,10.60
2016,06,26,06,12,10.60
2016,06,26,06,13,10.60
2016,06,26,06,14,10.70
2016,06,26,06,15,10.70
2016,06,26,06,16,10.70
2016,06,26,06,17,10.70
2016,06,26,06,18,10.70
2016,06,26,06,19,10.70
2016,06,26,06,20,10.70
2016,06,26,06,21,10.80
2016,06,26,06,22,10.80
2016,06,26,06,23,10.80
2016,06,26,06,24,10.90
2016,06,26,06,25,10.90
2016,06,26,06,26,10.90
2016,06,26,06,27,11.00
2016,06,26,06,28,11.00
2016,06,26,06,29,11.10
2016,06,26,06,30,11.10
2016,06,26,06,31,11.10
2016,06,26,06,32,11.10
2016,06,26,06,33,11.20
2016,06,26,06,34,11.20
2016,06,26,06,35,11.20
2016,06,26,06,36,11.20
2016,06,26,06,37,11.20
2016,06,26,06,38,11.20
2016,06,26,06,39,11.30
2016,06,26,06,40,11.30
2016,06,26,06,41,11.30
2016,06,26,06,42,11.30
2016,06,26,06,43,11.30
2016,06,26,06,44,11.40
2016,06,26,06,45,11.40
2016,06,26,06,46,11.40
2016,06,26,06,47,11.40
2016,06,26,06,48,11.40
2016,06,26,06,49,11.50
2016,06,26,06,50,11.50
2016,06,26,06,51,11.60
2016,06,26,06,52,11.60
2016,06,26,06,53,11.60
2016,06,26,06,54,11.70
2016,06,26,06,55,11.80
2016,06,26,06,56,11.80
2016,06,26,06,57,11.90
2016,06,26,06,58,11.90
2016,06,26,06,59,12.00
2016,06,26,07,00,12.00
2016,06,26,07,01,12.10
2016,06,26,07,02,12.10
2016,06,26,07,03,12.10
2016,06,26,07,04,12.20
2016,06,26,07,05,12.20
2016,06,26,07,06,12.20
2016,06,26,07,07,12.20
2016,06,26,07,08,12.30
2016,06,26,07,09,12.30
2016,06,26,07,10,12.30
2016,06,26,07,11,12.40
2016,06,26,07,12,12.40
2016,06,26,07,13,12.40
2016,06,26,07,14,12.50
2016,06,26,07,15,12.50
2016,06,26,07,16,12.60
2016,06,26,07,17,12.60
2016,06,26,07,18,12.70
2016,06,26,07,19,12.70
2016,06,26,07,20,12.70
2016,06,26,07,21,12.80
2016,06,26,07,22,12.80
2016,06,26,07,23,12.90
2016,06,26,07,24,12.90
2016,06,26,07,25,12.90
2016,06,26,07,26,13.00
2016,06,26,07,27,13.00
2016,06,26,07,28,13.10
2016,06,26,07,29,13.10
2016,06,26,07,30,13.20
2016,06,26,07,31,13.20
2016,06,26,07,32,13.30
2016,06,26,07,33,13.30
2016,06,26,07,34,13.30
2016,06,26,07,35,13.40
2016,06,26,07,36,13.40
2016,06,26,07,37,13.50
2016,06,26,07,38,13.50
2016,06,26,07,39,13.60
2016,06,26,07,40,13.60
2016,06,26,07,41,13.70
2016,06,26,07,42,13.70
2016,06,26,07,43,13.70
2016,06,26,07,44,13.80
2016,06,26,07,45,13.80
2016,06,26,07,46,13.90
2016,06,26,07,47,14.00
2016,06,26,07,48,14.00
2016,06,26,07,49,14.10
2016,06,26,07,50,14.10
2016,06,26,07,51,14.20
2016,06,26,07,52,14.20
2016,06,26,07,53,14.30
2016,06,26,07,54,14.40
2016,06,26,07,55,14.50
2016,06,26,07,56,14.60
2016,06,26,07,57,14.70
2016,06,26,07,58,14.80
2016,06,26,07,59,14.90
2016,06,26,08,00,15.00
2016,06,26,08,01,15.00
2016,06,26,08,02,15.10
2016,06,26,08,03,15.20
2016,06,26,08,04,15.30
2016,06,26,08,05,15.40
2016,06,26,08,06,15.50
2016,06,26,08,07,15.60
2016,06,26,08,08,15.70
2016,06,26,08,09,15.80
2016,06,26,08,10,15.90
2016,06,26,08,11,16.00
2016,06,26,08,12,16.00
2016,06,26,08,13,16.10
2016,06,26,08,14,16.20
2016,06,26,08,15,16.30
2016,06,26,08,16,16.40
2016,06,26,08,17,16.50
2016,06,26,08,18,16.50
2016,06,26,08,19,16.60
2016,06,26,08,20,16.70
2016,06,26,08,21,16.80
2016,06,26,08,22,16.90
2016,06,26,08,23,16.90
2016,06,26,08,24,17.00
2016,06,26,08,25,17.10
2016,06,26,08,26,17.10
2016,06,26,08,27,17.20
2016,06,26,08,28,17.20
2016,06,26,08,29,17.30
2016,06,26,08,30,17.40
2016,06,26,08,31,17.40
2016,06,26,08,32,17.50
2016,06,26,08,33,17.60
2016,06,26,08,34,17.70
2016,06,26,08,35,17.70
2016,06,26,08,36,17.80
2016,06,26,08,37,17.90
2016,06,26,08,38,18.00
2016,06,26,08,39,18.00
2016,06,26,08,40,18.10
2016,06,26,08,41,18.20
2016,06,26,08,42,18.20
2016,06,26,08,43,18.30
2016,06,26,08,44,18.30
2016,06,26,08,45,18.40
2016,06,26,08,46,18.40
2016,06,26,08,47,18.50
2016,06,26,08,48,18.50
2016,06,26,08,49,18.60
2016,06,26,08,50,18.60
2016,06,26,08,51,18.70
2016,06,26,08,52,18.70
2016,06,26,08,53,18.80
2016,06,26,08,54,18.80
2016,06,26,08,55,18.90
2016,06,26,08,56,18.90
2016,06,26,08,57,18.90
2016,06,26,08,58,19.00
2016,06,26,08,59,19.00
2016,06,26,09,00,19.00
2016,06,26,09,01,19.00
2016,06,26,09,02,19.10
2016,06,26,09,03,19.10
2016,06,26,09,04,19.10
2016,06,26,09,05,19.20
2016,06,26,09,06,19.20
2016,06,26,09,07,19.30
2016,06,26,09,08,19.30
2016,06,26,09,09,19.30
2016,06,26,09,10,19.40
2016,06,26,09,11,19.40
2016,06,26,09,12,19.50
2016,06,26,09,13,19.50
2016,06,26,09,14,19.60
2016,06,26,09,15,19.60
2016,06,26,09,16,19.60
2016,06,26,09,17,19.60
2016,06,26,09,18,19.60
2016,06,26,09,19,19.60
2016,06,26,09,20,19.70
2016,06,26,09,21,19.70
2016,06,26,09,22,19.70
2016,06,26,09,23,19.70
2016,06,26,09,24,19.70
2016,06,26,09,25,19.70
2016,06,26,09,26,19.70
2016,06,26,09,27,19.70
2016,06,26,09,28,19.70
2016,06,26,09,29,19.70
2016,06,26,09,30,19.70
2016,06,26,09,31,19.70
2016,06,26,09,32,19.70
2016,06,26,09,33,19.70
2016,06,26,09,34,19.70
2016,06,26,09,35,19.70
2016,06,26,09,36,19.80
2016,06,26,09,37,19.80
2016,06,26,09,38,19.70
2016,06,26,09,39,19.70
2016,06,26,09,40,19.70
2016,06,26,09,41,19.70
2016,06,26,09,42,19.80
2016,06,26,09,43,19.80
2016,06,26,09,44,19.80
2016,06,26,09,45,19.80
2016,06,26,09,46,19.80
2016,06,26,09,47,19.80
2016,06,26,09,48,19.80
2016,06,26,09,49,19.80
2016,06,26,09,50,19.70
2016,06,26,09,51,19.70
2016,06,26,09,52,19.80
2016,06,26,09,53,19.80
2016,06,26,09,54,19.80
2016,06,26,09,55,19.90
2016,06,26,09,56,20.00
2016,06,26,09,57,20.00
2016,06,26,09,58,20.00
2016,06,26,09,59,20.10
2016,06,26,10,00,20.10
2016,06,26,10,01,20.10
2016,06,26,10,02,20.10
2016,06,26,10,03,20.10
2016,06,26,10,04,20.20
2016,06,26,10,05,20.20
2016,06,26,10,06,20.20
2016,06,26,10,07,20.30
2016,06,26,10,08,20.30
2016,06,26,10,09,20.40
2016,06,26,10,10,20.40
2016,06,26,10,11,20.40
2016,06,26,10,12,20.50
2016,06,26,10,13,20.50
2016,06,26,10,14,20.50
2016,06,26,10,15,20.60
2016,06,26,10,16,20.60
2016,06,26,10,17,20.60
2016,06,26,10,18,20.60
2016,06,26,10,19,20.60
2016,06,26,10,20,20.60
2016,06,26,10,21,20.60
2016,06,26,10,22,20.60
2016,06,26,10,23,20.60
2016,06,26,10,24,20.60
2016,06,26,10,25,20.60
2016,06,26,10,26,20.60
2016,06,26,10,27,20.70
2016,06,26,10,28,20.70
2016,06,26,10,29,20.70
2016,06,26,10,30,20.80
2016,06,26,10,31,20.80
2016,06,26,10,32,20.80
2016,06,26,10,33,20.80
2016,06,26,10,34,20.80
2016,06,26,10,35,20.80
2016,06,26,10,36,20.90
2016,06,26,10,37,20.90
2016,06,26,10,38,20.90
2016,06,26,10,39,20.90
2016,06,26,10,40,20.90
2016,06,26,10,41,20.90
2016,06,26,10,42,20.90
2016,06,26,10,43,20.90
2016,06,26,10,44,21.00
2016,06,26,10,45,21.00
2016,06,26,10,46,21.00
2016,06,26,10,47,21.00
2016,06,26,10,48,21.10
2016,06,26,10,49,21.10
2016,06,26,10,50,21.10
2016,06,26,10,51,21.10
2016,06,26,10,52,21.20
2016,06,26,10,53,21.20
2016,06,26,10,54,21.20
2016,06,26,10,55,21.20
2016,06,26,10,56,21.30
2016,06,26,10,57,21.30
2016,06,26,10,58,21.30
2016,06,26,10,59,21.40
2016,06,26,11,00,21.50
2016,06,26,11,01,21.60
2016,06,26,11,02,21.70
2016,06,26,11,03,21.70
2016,06,26,11,04,21.80
2016,06,26,11,05,21.90
2016,06,26,11,06,21.90
2016,06,26,11,07,21.90
2016,06,26,11,08,21.90
2016,06,26,11,09,21.90
2016,06,26,11,10,21.90
2016,06,26,11,11,21.90
2016,06,26,11,12,21.80
2016,06,26,11,13,21.80
2016,06,26,11,14,21.80
2016,06,26,11,15,21.90
2016,06,26,11,16,21.90
2016,06,26,11,17,21.90
2016,06,26,11,18,21.90
2016,06,26,11,19,21.90
2016,06,26,11,20,22.00
2016,06,26,11,21,22.10
2016,06,26,11,22,22.20
2016,06,26,11,23,22.20
2016,06,26,11,24,22.20
2016,06,26,11,25,22.20
2016,06,26,11,26,22.30
2016,06,26,11,27,22.30
2016,06,26,11,28,22.30
2016,06,26,11,29,22.30
2016,06,26,11,30,22.30
2016,06,26,11,31,22.30
2016,06,26,11,32,22.30
2016,06,26,11,33,22.40
2016,06,26,11,34,22.40
2016,06,26,11,35,22.30
2016,06,26,11,36,22.30
2016,06,26,11,37,22.30
2016,06,26,11,38,22.40
2016,06,26,11,39,22.40
2016,06,26,11,40,22.40
2016,06,26,11,41,22.50
2016,06,26,11,42,22.60
2016,06,26,11,43,22.60
2016,06,26,11,44,22.70
2016,06,26,11,45,22.80
2016,06,26,11,46,22.90
2016,06,26,11,47,23.00
2016,06,26,11,48,23.10
2016,06,26,11,49,23.10
2016,06,26,11,50,23.20
2016,06,26,11,51,23.20
2016,06,26,11,52,23.20
2016,06,26,11,53,23.20
2016,06,26,11,54,23.20
2016,06,26,11,55,23.20
2016,06,26,11,56,23.20
2016,06,26,11,57,23.20
2016,06,26,11,58,23.20
2016,06,26,11,59,23.30
2016,06,26,12,00,23.30
2016,06,26,12,01,23.30
2016,06,26,12,02,23.30
2016,06,26,12,03,23.30
2016,06,26,12,04,23.20
2016,06,26,12,05,23.20
2016,06,26,12,06,23.30
2016,06,26,12,07,23.20
2016,06,26,12,08,23.20
2016,06,26,12,09,23.20
2016,06,26,12,10,23.20
2016,06,26,12,11,23.20
2016,06,26,12,12,23.20
2016,06,26,12,13,23.20
2016,06,26,12,14,23.20
2016,06,26,12,15,23.20
2016,06,26,12,16,23.20
2016,06,26,12,17,23.30
2016,06,26,12,18,23.40
2016,06,26,12,19,23.40
2016,06,26,12,20,23.50
2016,06,26,12,21,23.60
2016,06,26,12,22,23.70
2016,06,26,12,23,23.80
2016,06,26,12,24,23.80
2016,06,26,12,25,23.80
2016,06,26,12,26,23.90
2016,06,26,12,27,23.90
2016,06,26,12,28,24.00
2016,06,26,12,29,24.10
2016,06,26,12,30,24.10
2016,06,26,12,31,24.20
2016,06,26,12,32,24.20
2016,06,26,12,33,24.30
2016,06,26,12,34,24.30
2016,06,26,12,35,24.30
2016,06,26,12,36,24.30
2016,06,26,12,37,24.30
2016,06,26,12,38,24.30
2016,06,26,12,39,24.30
2016,06,26,12,40,24.30
2016,06,26,12,41,24.30
2016,06,26,12,42,24.30
2016,06,26,12,43,24.30
2016,06,26,12,44,24.30
2016,06,26,12,45,24.20
2016,06,26,12,46,24.10
2016,06,26,12,47,24.10
2016,06,26,12,48,24.10
2016,06,26,12,49,24.10
2016,06,26,12,50,24.10
2016,06,26,12,51,24.10
2016,06,26,12,52,24.20
2016,06,26,12,53,24.20
2016,06,26,12,54,24.30
2016,06,26,12,55,24.40
2016,06,26,12,56,24.50
2016,06,26,12,57,24.50
2016,06,26,12,58,24.60
2016,06,26,12,59,24.60
2016,06,26,13,00,24.60
2016,06,26,13,01,24.70
2016,06,26,13,02,24.70
2016,06,26,13,03,24.70
2016,06,26,13,04,24.70
2016,06,26,13,05,24.70
2016,06,26,13,06,24.80
2016,06,26,13,07,24.80
2016,06,26,13,08,24.90
2016,06,26,13,09,25.00
2016,06,26,13,10,25.00
2016,06,26,13,11,25.10
2016,06,26,13,12,25.10
2016,06,26,13,13,25.20
2016,06,26,13,14,25.20
2016,06,26,13,15,25.30
2016,06,26,13,16,25.30
2016,06,26,13,17,25.40
2016,06,26,13,18,25.40
2016,06,26,13,19,25.40
2016,06,26,13,20,25.40
2016,06,26,13,21,25.40
2016,06,26,13,22,25.50
2016,06,26,13,23,25.50
2016,06,26,13,24,25.40
2016,06,26,13,25,25.40
2016,06,26,13,26,25.40
2016,06,26,13,27,25.50
2016,06,26,13,28,25.50
2016,06,26,13,29,25.60
2016,06,26,13,30,25.60
2016,06,26,13,31,25.70
2016,06,26,13,32,25.70
2016,06,26,13,33,25.80
2016,06,26,13,34,25.70
2016,06,26,13,35,25.70
2016,06,26,13,36,25.70
2016,06,26,13,37,25.60
2016,06,26,13,38,25.60
2016,06,26,13,39,25.60
2016,06,26,13,40,25.60
2016,06,26,13,41,25.50
2016,06,26,13,42,25.50
2016,06,26,13,43,25.50
2016,06,26,13,44,25.40
2016,06,26,13,45,25.40
2016,06,26,13,46,25.50
2016,06,26,13,47,25.50
2016,06,26,13,48,25.50
2016,06,26,13,49,25.40
2016,06,26,13,50,25.40
2016,06,26,13,51,25.40
2016,06,26,13,52,25.40
2016,06,26,13,53,25.40
2016,06,26,13,54,25.50
2016,06,26,13,55,25.50
2016,06,26,13,56,25.60
2016,06,26,13,57,25.60
2016,06,26,13,58,25.50
2016,06,26,13,59,25.50
2016,06,26,14,00,25.40
2016,06,26,14,01,25.30
2016,06,26,14,02,25.30
2016,06,26,14,03,25.30
2016,06,26,14,04,25.20
2016,06,26,14,05,25.20
2016,06,26,14,06,25.20
2016,06,26,14,07,25.20
2016,06,26,14,08,25.20
2016,06,26,14,09,25.30
2016,06,26,14,10,25.40
2016,06,26,14,11,25.40
2016,06,26,14,12,25.40
2016,06,26,14,13,25.40
2016,06,26,14,14,25.40
2016,06,26,14,15,25.40
2016,06,26,14,16,25.50
2016,06,26,14,17,25.50
2016,06,26,14,18,25.50
2016,06,26,14,19,25.60
2016,06,26,14,20,25.60
2016,06,26,14,21,25.60
2016,06,26,14,22,25.60
2016,06,26,14,23,25.60
2016,06,26,14,24,25.50
2016,06,26,14,25,25.40
2016,06,26,14,26,25.30
2016,06,26,14,27,25.30
2016,06,26,14,28,25.30
2016,06,26,14,29,25.30
2016,06,26,14,30,25.20
2016,06,26,14,31,25.30
2016,06,26,14,32,25.30
2016,06,26,14,33,25.30
2016,06,26,14,34,25.40
2016,06,26,14,35,25.50
2016,06,26,14,36,25.50
2016,06,26,14,37,25.60
2016,06,26,14,38,25.60
2016,06,26,14,39,25.70
2016,06,26,14,40,25.70
2016,06,26,14,41,25.80
2016,06,26,14,42,25.90
2016,06,26,14,43,26.00
2016,06,26,14,44,26.10
2016,06,26,14,45,26.20
2016,06,26,14,46,26.20
2016,06,26,14,47,26.30
2016,06,26,14,48,26.40
2016,06,26,14,49,26.50
2016,06,26,14,50,26.50
2016,06,26,14,51,26.50
2016,06,26,14,52,26.50
2016,06,26,14,53,26.60
2016,06,26,14,54,26.60
2016,06,26,14,55,26.60
2016,06,26,14,56,26.60
2016,06,26,14,57,26.60
2016,06,26,14,58,26.50
2016,06,26,14,59,26.50
2016,06,26,15,00,26.50
2016,06,26,15,01,26.50
2016,06,26,15,02,26.40
2016,06,26,15,03,26.40
2016,06,26,15,04,26.30
2016,06,26,15,05,26.30
2016,06,26,15,06,26.30
2016,06,26,15,07,26.30
2016,06,26,15,08,26.30
2016,06,26,15,09,26.40
2016,06,26,15,10,26.40
2016,06,26,15,11,26.40
2016,06,26,15,12,26.40
2016,06,26,15,13,26.40
2016,06,26,15,14,26.40
2016,06,26,15,15,26.40
2016,06,26,15,16,26.40
2016,06,26,15,17,26.50
2016,06,26,15,18,26.50
2016,06,26,15,19,26.60
2016,06,26,15,20,26.60
2016,06,26,15,21,26.60
2016,06,26,15,22,26.60
2016,06,26,15,23,26.60
2016,06,26,15,24,26.70
2016,06,26,15,25,26.70
2016,06,26,15,26,26.70
2016,06,26,15,27,26.70
2016,06,26,15,28,26.70
2016,06,26,15,29,26.60
2016,06,26,15,30,26.60
2016,06,26,15,31,26.60
2016,06,26,15,32,26.50
2016,06,26,15,33,26.50
2016,06,26,15,34,26.50
2016,06,26,15,35,26.50
2016,06,26,15,36,26.60
2016,06,26,15,37,26.60
2016,06,26,15,38,26.60
2016,06,26,15,39,26.70
2016,06,26,15,40,26.70
2016,06,26,15,41,26.70
2016,06,26,15,42,26.80
2016,06,26,15,43,26.80
2016,06,26,15,44,26.80
2016,06,26,15,45,26.90
2016,06,26,15,46,26.90
2016,06,26,15,47,27.00
2016,06,26,15,48,27.00
2016,06,26,15,49,27.10
2016,06,26,15,50,27.10
2016,06,26,15,51,27.20
2016,06,26,15,52,27.30
2016,06,26,15,53,27.30
2016,06,26,15,54,27.30
2016,06,26,15,55,27.30
2016,06,26,15,56,27.30
2016,06,26,15,57,27.20
2016,06,26,15,58,27.20
2016,06,26,15,59,27.20
2016,06,26,16,00,27.20
2016,06,26,16,01,27.20
2016,06,26,16,02,27.30
2016,06,26,16,03,27.30
2016,06,26,16,04,27.30
2016,06,26,16,05,27.20
2016,06,26,16,06,27.20
2016,06,26,16,07,27.20
2016,06,26,16,08,27.10
2016,06,26,16,09,27.00
2016,06,26,16,10,26.90
2016,06,26,16,11,26.90
2016,06,26,16,12,26.80
2016,06,26,16,13,26.70
2016,06,26,16,14,26.70
2016,06,26,16,15,26.70
2016,06,26,16,16,26.60
2016,06,26,16,17,26.60
2016,06,26,16,18,26.60
2016,06,26,16,19,26.60
2016,06,26,16,20,26.60
2016,06,26,16,21,26.70
2016,06,26,16,22,26.70
2016,06,26,16,23,26.70
2016,06,26,16,24,26.70
2016,06,26,16,25,26.80
2016,06,26,16,26,26.80
2016,06,26,16,27,26.80
2016,06,26,16,28,26.80
2016,06,26,16,29,26.90
2016,06,26,16,30,26.90
2016,06,26,16,31,26.90
2016,06,26,16,32,26.90
2016,06,26,16,33,26.80
2016,06,26,16,34,26.70
2016,06,26,16,35,26.70
2016,06,26,16,36,26.70
2016,06,26,16,37,26.60
2016,06,26,16,38,26.50
2016,06,26,16,39,26.50
2016,06,26,16,40,26.50
2016,06,26,16,41,26.40
2016,06,26,16,42,26.40
2016,06,26,16,43,26.50
2016,06,26,16,44,26.50
2016,06,26,16,45,26.60
2016,06,26,16,46,26.60
2016,06,26,16,47,26.70
2016,06,26,16,48,26.80
2016,06,26,16,49,26.90
2016,06,26,16,50,26.90
2016,06,26,16,51,26.90
2016,06,26,16,52,26.90
2016,06,26,16,53,26.90
2016,06,26,16,54,26.90
2016,06,26,16,55,26.90
2016,06,26,16,56,26.90
2016,06,26,16,57,26.90
2016,06,26,16,58,26.90
2016,06,26,16,59,26.80
2016,06,26,17,00,26.80
2016,06,26,17,01,26.80
2016,06,26,17,02,26.70
2016,06,26,17,03,26.70
2016,06,26,17,04,26.70
2016,06,26,17,05,26.70
2016,06,26,17,06,26.70
2016,06,26,17,07,26.70
2016,06,26,17,08,26.60
2016,06,26,17,09,26.60
2016,06,26,17,10,26.60
2016,06,26,17,11,26.60
2016,06,26,17,12,26.60
2016,06,26,17,13,26.50
2016,06,26,17,14,26.50
2016,06,26,17,15,26.50
2016,06,26,17,16,26.50
2016,06,26,17,17,26.50
2016,06,26,17,18,26.50
2016,06,26,17,19,26.60